TDRS 7

Last updated on Wed Sep 09 2026 00:02:52 GMT+0000 (Coordinated Universal Time)

1 23613U 95035B 26250.69504032 -.00000252 00000+0 00000+0 0 9999 2 23613 13.3033 347.6124 0011616 98.6992 239.8821 1.00275348114071
UTC large
Height (km)
Speed (km/s)
/
Latitude / Longitude
Inclination (degrees)
Orbital Period (minutes)
Azimuth
Elevation
Range (km)
Doppler Factor

Next 0 passes for location: London (51.5072 / 0.1276)

No passes found over London.
TDRS 7